Regional Weather Roundup
Issued by NWS Kansas City/Pleasant Hill, MO

Home | Current Version | Previous Version | Text Only | Print | Product List | Glossary On
Versions: 1 2 3 4 5 6 7 8 9 10 11 12 13 14 15 16 17 18 19 20 21 22 23 24 25 26 27 28 29 30 31 32 33 34 35 36 37 38 39 40 41 42 43 44 45 46 47 48 49 50
000
ASUS43 KEAX 302304
RWREAX

WEATHER ROUNDUP FOR EASTERN KANSAS AND NORTHWEST MISSOURI
NATIONAL WEATHER SERVICE KANSAS CITY/PLEASANT HILL MO
600 PM CDT TUE JUN 30 2015

KSZ040-057-103>105-MOZ028-029-037-043-010000-
...KANSAS CITY METROPOLITAN AREA...

CITY           SKY/WX    TMP DP  RH WIND       PRES   REMARKS
K.C. INTL      CLOUDY    83  66  56 E6        29.89F
K.C. DOWNTOWN  PTSUNNY   85  63  47 E5        29.87F
LEES SUMMIT    PTSUNNY   85  62  46 E5        29.90F
OLATHE - IXD   PTSUNNY   88  64  44 SE9       29.89F
OLATHE - OJC   PTSUNNY   85  64  49 E8        29.89F
LAWRENCE       MOSUNNY   85  68  56 E7        29.87F

$$

MOZ001>008-011>017-020>025-030>033-038>040-044>046-053-054-010000-
...NORTHERN AND CENTRAL MISSOURI...

CITY           SKY/WX    TMP DP  RH WIND       PRES   REMARKS
ST. JOSEPH     CLOUDY    83  67  58 E5        29.88F
MOSBY          CLOUDY    82  68  61 CALM      29.89S
HARRISONVILLE  PTSUNNY   88  68  51 CALM      29.92  HX  91
WHITEMAN AFB   PTSUNNY   84  67  56 SW3       29.89F
CLINTON        CLOUDY    86  68  54 CALM      29.90F HAZE
SEDALIA        CLOUDY    82  71  69 MISG      29.91F
WARSAW         FAIR      86  68  54 CALM      29.91F
CHILLICOTHE      N/A     80  72  76 CALM      29.90F
KIRKSVILLE     PTSUNNY   78  67  68 W5        29.90S

$$

MOZ041-047>049-056>058-063>065-088>090-097-010000-
...EASTERN AND SOUTHERN MISSOURI...

CITY           SKY/WX    TMP DP  RH WIND       PRES   REMARKS
ST. LOUIS INTL MOSUNNY   84  68  58 W12       29.86S
SPIRIT OF STL  CLOUDY    81  72  74 W7        29.85S
COLUMBIA       PTSUNNY   80  69  69 W9        29.89F
JEFFERSON CITY PTSUNNY   82  66  58 W7        29.88S
MEXICO         PTSUNNY   82  72  69 W7        29.89F
ROLLA          MOSUNNY   80  70  71 W6        29.90F
OSAGE BEACH    PTSUNNY   82  70  65 SW6       29.91F
SPRINGFIELD    PTSUNNY   87  67  51 NW6       29.93F HX  90
BRANSON        SUNNY     84  70  61 NW6       29.96F
NEVADA         PTSUNNY   88  70  55 SE3       29.92F HX  92
JOPLIN         MOSUNNY   90  70  51 VRB3      29.92S HX  95
WEST PLAINS    MOSUNNY   83  67  58 W5        29.95F
MALDEN         SUNNY     88  66  48 W12       29.88F HX  90

$$

IAZ060-094-KSZ022-034>040-054-083-096-NEZ052-066-093-010000-
...KANSAS...SOUTHEAST NEBRASKA AND IOWA...

CITY           SKY/WX    TMP DP  RH WIND       PRES   REMARKS
TOPEKA         MOSUNNY   89  67  47 E10       29.86F HAZE    HX  92
MANHATTAN      PTSUNNY   98  65  33 S3        29.81F HX 101
EMPORIA        MOSUNNY   93  64  38 S9        29.85F HX  94
CHANUTE        MOSUNNY   91  69  48 S6        29.88F HX  96
WICHITA        PTSUNNY   95  57  27 SW12      29.86F HX  94
OMAHA          CLOUDY    75  64  68 SE3       29.88F
LINCOLN        CLOUDY    81  62  52 E9        29.88S
FALLS CITY     CLOUDY    79  68  69 E7        29.87F
LAMONI         CLOUDY    78  69  73 NW5       29.91R
DES MOINES     CLOUDY    79  63  57 NW7       29.89S

$$



USA.gov is the U.S. government's official web portal to all federal, state and local government web resources and services.